COSMOS 2448 (GLONASS)

Satellite information

Favourite Embed

Satellite Type and Status

PAYLOADIN ORBIT

Key statistics

Satellite COSMOS 2448 (GLONASS) at a glance.

Uptime

6040

Days in orbit

Revolutions

≈ 2.1

Per day

Orbit

MEO

Medium Earth Orbit

Inclination

64.6

Latest

Satellite identification and parameters

Extended collection of information and parameters for COSMOS 2448 (GLONASS).

Object identification

Identified? True

Debris? False

Object name: COSMOS 2448 (GLONASS)

International designator: 2008-067C

Object number (NORAD): 33468

Object ID (CCSDS): 33468

Country: COMMONWEALTH OF INDEPENDENT STATES (CIS)

Current information (Y/N): Y

RCS size: LARGE

Orbital parameters

Period: 675.686 minutes

Inclination: 64.6067 deg

SMA: 25506.85 km

Apoapsis: 19133.641 km

Periapsis: 19123.79 km

RAAN: 81.1276 deg

Eccentricy: 0.0001931

Argument of periapsis: 237.6001 deg

Mean anomaly: 122.4331 deg

Mean motion: 2.13116716 rev/day

Mean motion (dot): -0.00000031 rev/day2

B* drag term: 0.0 1/REarth

Two-line elements (TLE)

Creation date: July 9, 2025, 2:22 a.m.

Reference frame: TEME

Reference center: EARTH

Epoch: July 8, 2025, 3:29 a.m. UTC

TLE line 0: 0 COSMOS 2448 (GLONASS)

TLE line 1: 1 33468U 08067C 25189.14556019 -.00000031 00000-0 00000-0 0 9996

TLE line 2: 2 33468 64.6067 81.1276 0001931 237.6001 122.4331 2.13116716128705

Live tracking on map

Real-time ground track for satellite COSMOS 2448 (GLONASS).

In-orbit conjunctions

There are no conjunctions computed for COSMOS 2448 (GLONASS), at the moment. Check back to stay up to date, as we update our databases every day.

Go to all conjunctions

Associated space launch

GLONASS navigation satellites

COSMOS 2448 (GLONASS) was lifted into orbit during the mission ‘Proton-M | Uragan-M 18 to 20’, on board a Proton-M space rocket.

The launch took place on Dec. 25, 2008, 10:43 a.m. from 81/24 (81P).

For more information about the launch, click the button.

Launch to space Proton-M | Uragan-M 18 to 20
Proton-M | Uragan-M 18 to 20

Agency: N/A

Status: Launch Successful

Launch date: Dec. 25, 2008, 10:43 a.m. UTC

Rocket: Proton-M

Launch pad: 81/24 (81P)

Location: Baikonur Cosmodrome, Republic of Kazakhstan

...

Latest news about this satellite

There are no fresh news available about this satellite. Check back as we update our databases every day.


Newsletter sign-up

Weekly statistics, charts and insights to help you stay on top of the space industry.